Location: Pensacola
(30.4142°N, 87.2155°W)
Time: 23:51:04
(UTC-05:00)

N. Korean satellite - Visible Passes

Search period start: 23 September 2017 00:00
Search period end: 03 October 2017 00:00
Orbit: 461 x 516 km, 97.2° (Epoch: 23 September)

Date Brightness Start Highest point End Pass type
(mag) Time Alt. Az. Time Alt. Az. Time Alt. Az.
24 Sep 9.8 19:54:49 10° SW 19:57:14 16° W 19:59:38 10° NW visible
25 Sep 8.6 19:30:32 10° SSW 19:33:57 33° W 19:37:21 10° NNW visible
26 Sep 6.9 19:06:59 10° S 19:10:43 75° W 19:14:26 10° NNW visible
28 Sep 9.9 19:55:34 10° SW 19:57:52 16° W 20:00:10 10° WNW visible
29 Sep 8.7 19:31:13 10° SSW 19:34:34 32° W 19:37:55 10° NNW visible
30 Sep 6.9 19:07:37 10° S 19:11:20 73° W 19:15:00 10° NNW visible
02 Oct 9.9 19:56:16 10° SW 19:58:28 15° W 20:00:39 10° WNW visible
